Location: Kuffner-Sternwarte
(48.2130°N, 16.2960°E)
Time: 04:40:52
(UTC+02:00)

ACS3 Solar Sail - Pass Details

Date: 23 September 2024
Orbit: 963 x 1036 km, 97.4° (Epoch: 04 October)

Event Time Altitude Azimuth Distance (km) Brightness Sun altitude
Exits shadow 22:32:45 12° 231° (SW) 2,697 4.1 -34.2°
Maximum altitude 22:36:48 20° 274° (W) 2,169 4.0 -34.7°
Drops below altitude 10° 22:41:26 10° 320° (NW) 2,840 5.0 -35.2°
Sets 22:44:42 0° 337° (NNW) 3,790 5.8 -35.5°
